This demonstration page uses our WeatherBlox Daily Observations layout. Learn more.

Left ArrowRight Arrow

Hourly Observations for November 8, 2020

Temp ( °F °C ) Dew Point ( °F °C ) Humidity (%) Winds ( mph kmh ) Pressure ( in mb ) Visibility ( mi km ) Precip ( " mm )
12:51 am 00:51 Mostly Cloudy 56 13.3 35 1.7 46 46 NW 26 43 29.63 1003 10 16 0.00 0.00
1:51 am 01:51 Mostly Clear 55 12.8 35 1.7 47 47 NW 24 39 29.66 1005 10 16 0.00 0.00
2:51 am 02:51 Mostly Cloudy 53 11.7 35 1.7 51 51 NNW 10 17 29.70 1006 10 16 0.00 0.00
3:51 am 03:51 Mostly Clear 52 11.1 35 1.7 53 53 NW 6 9 29.70 1006 10 16 0.00 0.00
4:51 am 04:51 Clear 49 9.4 35 1.7 59 59 W 7 11 29.72 1007 10 16 0.00 0.00
5:51 am 05:51 Clear 48 8.9 34 1.1 58 58 W 9 15 29.74 1007 10 16 0.00 0.00
6:51 am 06:51 Sunny 45 7.2 34 1.1 66 66 WNW 6 9 29.75 1007 10 16 0.00 0.00
7:51 am 07:51 Sunny 50 10 35 1.7 57 57 Calm 29.75 1008 10 16 0.00 0.00
8:51 am 08:51 Sunny 52 11.1 35 1.7 53 53 VRB 3 6 29.77 1008 10 16 0.00 0.00
9:51 am 09:51 Sunny 56 13.3 35 1.7 46 46 VRB 3 6 29.76 1008 10 16 0.00 0.00
10:51 am 10:51 Sunny 61 16.1 36 2.2 39 39 NNW 5 7 29.74 1007 10 16 0.00 0.00
11:51 am 11:51 Sunny 62 16.7 35 1.7 37 37 WNW 3 6 29.71 1006 10 16 0.00 0.00
12:51 pm 12:51 Sunny 68 20 33 0.6 27 27 NNW 7 11 29.65 1004 10 16 0.00 0.00
1:51 pm 13:51 Sunny 70 21.1 31 -0.6 23 23 undefined N/A 29.62 1003 10 16 0.00 0.00
2:51 pm 14:51 Sunny 72 22.2 25 -3.9 17 17 W 12 19 29.60 1002 10 16 0.00 0.00
3:51 pm 15:51 Sunny 71 21.7 28 -2.2 20 20 WNW 16 26 29.60 1003 10 16 0.00 0.00
4:51 pm 16:51 Sunny 67 19.4 28 -2.2 23 23 WNW 17 28 29.62 1003 10 16 0.00 0.00
5:51 pm 17:51 Clear 62 16.7 36 2.2 38 38 NW 20 31 29.66 1004 10 16 0.00 0.00
6:51 pm 18:51 Clear 60 15.6 37 2.8 42 42 W 9 15 29.69 1005 10 16 0.00 0.00
7:51 pm 19:51 Clear 59 15 37 2.8 44 44 WNW 13 20 29.69 1006 10 16 0.00 0.00
8:51 pm 20:51 Clear 58 14.4 37 2.8 46 46 W 17 28 29.71 1006 10 16 0.00 0.00
9:51 pm 21:51 Clear 56 13.3 35 1.7 46 46 VRB 5 7 29.74 1007 10 16 0.00 0.00
10:51 pm 22:51 Mostly Cloudy 55 12.8 35 1.7 47 47 NNE 3 6 29.74 1007 10 16 0.00 0.00
11:51 pm 23:51 Clear 54 12.2 35 1.7 49 49 VRB 3 6 29.73 1007 10 16 0.00 0.00

Powered by AerisWeather